Location: Santa Teresa Spring
(37.2333°N, 121.7000°W)
Time: 08:05:38
(UTC-07:00)

ISS - Visible Passes

Search period start: 21 October 2014 00:00
Search period end: 31 October 2014 00:00
Orbit: 413 x 416 km, 51.6° (Epoch: 20 October)

Date Brightness Start Highest point End Pass type
(mag) Time Alt. Az. Time Alt. Az. Time Alt. Az.
21 Oct -0.2 20:37:24 10° NW 20:37:42 12° NNW 20:37:42 12° NNW visible
22 Oct -1.6 19:48:36 10° NNW 19:50:44 22° NNE 19:50:44 22° NNE visible
23 Oct -1.3 18:59:52 10° NNW 19:02:05 16° NNE 19:03:49 12° ENE visible
23 Oct -0.5 20:35:47 10° NW 20:36:42 17° NW 20:36:42 17° NW visible
24 Oct -3.2 19:46:41 10° NW 19:49:53 57° NNE 19:49:53 57° NNE visible
25 Oct -2.4 18:57:41 10° NNW 19:00:45 33° NNE 19:03:12 14° E visible
25 Oct -0.5 20:34:36 10° WNW 20:36:05 19° W 20:36:05 19° W visible
26 Oct -2.2 19:45:02 10° WNW 19:48:13 43° SW 19:49:35 27° S visible
27 Oct -3.3 18:55:41 10° NW 18:59:02 87° SW 19:02:21 10° SE visible
28 Oct -0.3 19:44:11 10° W 19:46:06 15° SW 19:48:00 10° SSW visible
29 Oct -1.0 18:54:05 10° WNW 18:56:57 27° SW 18:59:48 10° SSE visible
